Date,TemperatureHighF,TemperatureAvgF,TemperatureLowF,DewpointHighF,DewpointAvgF,DewpointLowF,HumidityHigh,HumidityAvg,HumidityLow,PressureMaxIn,PressureMinIn,WindSpeedMaxMPH,WindSpeedAvgMPH,GustSpeedMaxMPH,PrecipitationSumIn
2013-2-10,63.4,61.9,60.1,31.0,28.9,27.0,30,29,27,29.82,29.75,9,2,16,0.12
2013-2-12,43.4,38.8,33.8,39.1,34.4,29.2,95,85,60,30.09,29.98,14,1,14,0.29
2013-2-13,56.4,42.2,33.4,40.7,34.2,29.7,96,76,39,30.09,29.97,10,0,10,0.01
2013-2-14,60.9,45.0,28.1,35.6,31.0,26.1,93,62,35,30.23,30.00,14,1,14,0.00
2013-2-15,46.0,37.2,27.1,31.3,19.6,9.5,75,52,24,30.43,30.23,16,2,16,0.00
2013-2-16,46.4,35.9,25.5,27.5,17.1,9.3,78,48,27,30.44,30.11,14,1,14,0.00
2013-2-17,71.4,51.3,28.3,33.9,28.7,20.8,88,47,22,30.11,29.77,13,2,13,0.00
2013-2-18,63.2,55.0,38.6,51.3,38.1,25.6,71,54,35,30.16,29.64,29,4,29,0.00
2013-2-19,52.7,38.9,24.8,28.0,23.4,20.9,89,57,30,30.38,30.16,8,1,11,0.00
2013-2-20,38.9,35.4,32.8,34.2,29.5,22.6,95,81,53,30.31,30.04,9,0,9,0.49
2013-2-21,36.3,33.8,28.0,34.8,31.8,22.2,97,92,80,30.04,29.71,15,1,15,0.94
2013-2-22,39.6,29.7,21.3,24.7,20.1,18.0,87,68,45,30.20,30.00,15,1,15,0.03
2013-2-23,47.6,32.1,19.8,24.2,20.4,17.3,91,65,37,30.17,29.98,7,0,7,0.02
2013-2-24,61.4,43.6,27.1,39.4,32.1,24.3,89,66,41,30.01,29.77,15,2,15,0.00
2013-2-25,45.9,40.0,34.2,38.5,35.7,32.9,95,85,65,29.84,29.47,19,2,19,1.20
2013-2-26,42.9,37.5,32.6,35.8,32.6,28.8,96,83,69,29.95,29.50,21,4,21,0.09
2013-2-27,49.5,37.9,29.5,33.5,28.6,25.3,94,71,40,30.19,29.94,22,3,22,0.00
2013-2-28,49.7,38.4,29.4,30.7,28.1,26.2,89,68,46,30.26,30.18,18,3,18,0.00
2013-3-1,40.9,36.4,31.6,28.1,24.3,16.5,69,61,49,30.36,30.24,17,3,17,0.00
2013-3-2,48.9,35.9,27.7,24.0,19.8,16.9,77,54,29,30.43,30.23,13,2,13,0.00
2013-3-3,65.8,47.0,26.6,33.0,27.7,22.6,86,52,25,30.22,29.70,13,2,13,0.00
2013-3-4,75.5,59.1,45.9,43.0,38.8,33.0,66,49,26,29.96,29.55,22,2,25,0.00
2013-3-5,50.9,42.7,36.0,37.1,24.1,16.5,86,50,28,30.40,29.96,23,6,26,0.11
2013-3-6,52.4,39.7,27.1,26.4,21.1,17.7,72,49,26,30.49,30.24,8,0,8,0.00
2013-3-7,68.6,51.5,30.9,30.8,28.0,25.1,83,45,20,30.26,30.08,14,2,15,0.00
2013-3-8,59.3,53.4,46.5,42.4,36.6,30.3,69,53,42,30.19,29.97,13,2,17,0.00
2013-3-9,64.1,58.8,54.1,57.7,49.0,36.1,96,72,42,29.97,29.65,16,2,16,0.33
2013-3-10,55.0,43.1,33.3,53.3,38.0,24.9,95,82,71,30.06,29.61,21,3,21,0.02
2013-3-11,54.3,39.4,28.1,26.7,22.2,11.1,83,55,19,30.08,29.99,15,2,15,0.00
2013-3-12,61.6,46.6,32.1,37.5,28.9,22.8,83,55,25,30.36,30.06,17,2,17,0.00
2013-3-13,60.7,42.7,27.3,29.2,24.5,18.3,90,54,22,30.52,30.36,7,1,7,0.00
2013-3-14,81.2,57.0,35.1,42.8,35.0,27.3,79,48,22,30.36,30.08,16,1,16,0.00
2013-3-15,86.0,66.1,44.0,49.3,44.2,40.9,92,51,22,30.10,29.75,15,1,15,0.00
2013-3-16,76.8,63.1,49.8,51.4,45.5,39.1,84,54,39,29.83,29.71,14,2,15,0.00
2013-3-17,49.7,44.9,41.7,43.4,40.8,37.4,94,86,67,29.84,29.70,16,2,16,0.00
2013-3-18,63.7,48.4,38.9,43.0,36.2,24.4,95,68,24,30.06,29.71,14,2,15,0.01
2013-3-19,62.2,47.7,33.7,34.1,29.5,26.0,89,53,26,30.27,30.03,10,1,13,0.00
2013-3-20,54.7,44.1,33.8,34.2,26.1,17.0,88,54,26,30.42,30.10,16,1,16,0.00
2013-3-21,42.7,38.6,35.7,24.2,23.0,21.2,60,53,43,30.10,29.97,3,0,4,0.00
2013-3-22,37.9,37.9,37.9,23.2,23.2,23.2,55,55,55,30.02,30.02,0,0,0,0.00
2013-3-23,37.9,37.9,37.9,23.2,23.2,23.2,55,55,55,30.02,30.02,0,0,0,0.00
2013-3-24,42.9,37.9,31.4,27.8,23.1,19.4,72,55,43,30.22,30.02,9,2,26,0.01
2013-3-25,42.2,34.4,28.9,23.6,20.9,16.6,75,59,37,30.37,30.21,20,4,20,0.00
2013-3-26,53.4,35.1,21.1,25.8,20.2,16.7,94,58,27,30.51,30.31,6,2,6,0.00
2013-3-27,69.9,50.6,31.4,33.4,27.8,23.9,76,46,22,30.32,30.09,15,2,15,0.00
2013-3-28,76.3,60.4,42.8,50.9,42.1,28.8,66,51,37,30.19,30.05,12,1,12,0.00
2013-3-29,72.5,60.6,48.8,58.3,53.9,46.9,96,80,60,30.13,30.05,12,1,12,2.19
2013-3-30,79.0,64.9,55.2,61.3,57.0,52.5,95,77,52,30.08,29.80,13,2,13,0.36
2013-3-31,72.8,61.2,50.2,58.5,48.2,40.6,98,67,33,30.00,29.85,19,2,19,0.00
2013-4-1,64.7,51.1,42.3,46.1,41.6,31.8,97,72,45,30.17,29.97,15,2,15,0.00
2013-4-2,45.7,41.4,39.0,40.1,37.0,30.8,95,85,58,30.25,30.16,15,2,15,0.63
2013-4-3,43.9,41.6,39.7,39.8,36.3,31.7,95,82,64,30.26,30.17,8,1,10,0.43
2013-4-4,62.2,49.0,39.7,41.6,37.7,31.6,96,69,34,30.22,30.10,12,1,13,0.22
2013-4-5,74.2,55.5,35.8,46.2,41.1,34.6,97,64,30,30.23,29.95,9,1,9,0.00
2013-4-6,81.0,66.2,56.6,52.5,48.6,44.2,71,55,33,29.95,29.76,17,2,17,0.00
2013-4-7,67.3,61.5,50.5,59.6,55.8,48.9,97,82,73,29.87,29.70,13,1,14,0.00
2013-4-8,75.7,68.7,63.4,62.8,60.2,57.9,88,75,63,29.75,29.62,15,3,15,0.00
2013-4-9,80.0,72.1,48.3,65.0,61.2,42.0,80,69,57,29.79,29.62,20,2,24,0.01
2013-4-10,47.9,39.9,36.7,42.2,36.7,31.7,95,89,80,29.99,29.75,16,4,16,0.57
2013-4-11,59.2,44.3,34.7,36.0,30.9,27.0,88,62,34,29.98,29.79,17,2,17,0.00
2013-4-12,65.1,50.0,36.2,38.8,33.3,28.2,95,57,27,30.05,29.84,15,1,16,0.00
2013-4-13,76.5,59.3,47.2,51.2,44.7,36.5,91,61,34,30.06,29.73,13,2,14,0.12
2013-4-14,85.0,69.9,57.8,57.8,50.9,46.2,81,53,32,29.73,29.47,19,2,19,0.00
2013-4-15,78.7,63.8,55.5,58.2,47.3,37.1,74,56,45,29.84,29.65,14,2,15,0.05
2013-4-16,63.2,54.9,51.6,53.5,48.1,43.3,88,78,67,29.97,29.82,12,2,12,0.00
2013-4-17,83.1,69.8,53.1,69.8,61.6,49.0,97,76,57,29.92,29.49,17,2,18,0.25
2013-4-18,68.6,47.3,41.9,65.2,39.9,26.5,97,77,54,30.11,29.46,21,4,22,2.97
2013-4-19,65.3,48.5,35.1,39.4,29.6,21.5,79,52,22,30.19,30.05,15,2,15,0.00
2013-4-20,75.8,57.0,39.1,42.3,36.9,28.4,92,54,19,30.17,30.02,15,1,18,0.00
2013-4-21,74.2,61.8,50.6,46.0,41.8,36.9,81,50,26,30.21,30.07,16,2,17,0.01
2013-4-22,79.0,64.0,47.6,53.1,47.0,41.8,84,57,37,30.13,29.83,17,2,17,0.00
2013-4-23,67.7,46.0,37.8,55.6,41.8,33.7,94,86,53,30.23,29.78,15,3,15,0.16
2013-4-24,61.3,46.1,34.6,34.8,30.2,22.4,88,58,26,30.35,30.21,14,2,14,0.00
2013-4-25,73.8,54.5,33.1,39.2,33.6,27.0,96,53,18,30.39,30.17,9,1,9,0.00
2013-4-26,62.8,56.7,53.7,52.7,47.2,39.2,95,73,42,30.19,30.05,14,2,14,0.14
2013-4-27,58.8,55.2,52.7,53.2,52.2,50.9,97,90,79,30.10,29.97,11,1,11,0.08
2013-4-28,82.8,64.9,47.8,59.3,53.9,46.3,97,70,35,30.05,29.82,10,1,11,0.00
2013-4-29,92.0,74.5,57.4,63.6,56.5,49.7,92,59,27,29.84,29.68,13,2,13,0.00
2013-4-30,87.0,74.8,61.2,60.6,55.4,46.6,82,54,25,29.79,29.70,15,2,15,0.00
2013-5-1,85.5,74.0,62.7,64.7,60.3,56.6,86,64,42,30.01,29.78,14,3,14,0.00
2013-5-2,68.9,45.0,36.8,59.7,39.6,34.7,93,82,59,30.40,30.01,22,3,23,0.34
2013-5-3,62.6,49.1,36.9,35.7,31.2,24.8,92,56,25,30.38,29.99,21,3,25,0.00
2013-5-4,49.6,45.2,40.8,45.2,40.3,35.2,93,83,69,30.06,29.91,14,1,14,0.11
2013-5-5,62.2,51.8,45.1,50.5,46.1,40.6,94,81,64,30.15,30.06,9,1,9,0.00
2013-5-6,71.8,55.4,42.7,56.0,49.7,41.8,98,83,50,30.14,30.01,7,1,7,0.00
2013-5-7,81.2,63.4,46.2,58.3,51.8,45.4,98,71,32,30.09,29.94,9,1,9,0.00
2013-5-8,86.1,71.0,55.2,61.4,55.2,46.9,90,61,32,29.99,29.83,17,2,19,0.07
2013-5-9,74.7,65.4,58.4,66.0,62.5,56.7,98,91,69,29.97,29.83,23,1,27,0.76
2013-5-10,74.0,65.2,54.5,64.8,58.6,52.2,98,81,54,30.06,29.90,11,1,11,0.06
2013-5-11,78.5,62.8,48.4,65.6,49.9,35.6,99,68,25,30.22,30.06,15,1,17,0.13
2013-5-12,74.7,59.3,41.6,48.3,41.2,33.1,96,57,25,30.28,30.12,8,1,8,0.00
2013-5-13,91.6,71.4,50.1,59.7,52.0,45.4,90,55,27,30.13,29.98,10,1,11,0.00
2013-5-14,92.8,77.2,58.5,60.1,53.7,49.2,76,47,26,30.02,29.88,10,1,11,0.00
2013-5-15,76.2,70.3,63.6,68.0,63.0,52.9,97,79,54,29.94,29.78,13,2,15,0.70
2013-5-16,79.7,68.0,62.1,67.5,63.5,60.6,97,87,61,29.85,29.76,8,1,9,0.01
2013-5-17,84.1,70.1,59.3,72.4,65.7,58.6,99,87,64,29.90,29.82,7,1,7,0.00
2013-5-18,89.9,78.6,69.1,76.7,71.9,67.9,97,81,60,29.85,29.69,15,2,15,0.00
2013-5-19,83.8,75.9,66.0,71.9,68.0,61.6,96,77,64,29.87,29.54,23,3,23,0.31
2013-5-20,86.3,75.9,69.6,73.5,69.7,64.1,93,82,66,29.74,29.53,17,2,18,0.04
2013-5-21,71.6,63.2,57.3,65.5,60.6,56.2,97,91,76,29.89,29.61,14,1,14,0.55
2013-5-22,83.5,66.9,52.6,62.5,57.5,51.8,99,76,40,29.91,29.79,10,1,10,0.00
2013-5-23,65.4,62.0,58.5,61.7,59.6,56.0,98,92,77,30.13,29.90,13,0,14,0.32
2013-5-24,80.5,69.1,58.3,67.7,62.2,57.2,99,80,63,30.20,30.08,13,2,13,0.00
2013-5-25,86.3,74.3,63.8,70.5,64.1,57.5,87,72,54,30.17,29.97,14,2,14,0.00
2013-5-26,86.8,76.8,68.1,71.8,67.9,64.2,92,75,57,30.04,29.89,14,2,15,0.00
2013-5-27,86.5,78.0,70.7,71.0,68.5,64.4,92,74,56,29.92,29.69,20,3,20,0.00
2013-5-28,83.5,78.4,73.9,69.6,67.8,66.3,83,71,60,29.78,29.69,16,3,18,0.00
2013-5-29,80.0,75.1,66.0,69.4,67.3,62.3,96,77,67,29.80,29.65,20,3,20,0.21
2013-5-30,83.8,73.4,64.6,73.9,69.1,63.0,97,87,70,29.73,29.61,15,3,15,0.76
2013-5-31,90.5,80.7,72.6,75.9,72.8,69.3,94,78,61,29.73,29.55,20,3,20,0.00
2013-6-1,82.4,72.0,64.4,70.9,62.3,55.7,97,74,45,29.99,29.59,15,1,17,0.18
2013-6-2,75.3,65.5,58.9,59.4,55.9,52.0,94,72,54,30.07,29.98,11,1,11,0.00
2013-6-3,83.7,68.5,52.4,66.5,59.7,51.5,98,76,49,30.02,29.82,12,1,12,0.00
2013-6-4,82.8,73.9,66.0,70.8,66.6,63.1,95,79,64,29.97,29.75,18,2,21,0.43
2013-6-5,84.5,74.0,65.5,70.8,67.1,64.0,97,80,56,29.96,29.82,21,2,22,1.39
2013-6-6,79.2,70.6,60.3,66.0,60.4,52.8,93,73,41,29.94,29.87,11,1,12,0.00
2013-6-7,83.8,69.4,54.8,61.3,57.5,53.8,98,70,40,29.98,29.87,11,1,11,0.00
2013-6-8,86.2,72.4,58.3,64.9,60.2,56.4,96,69,41,29.91,29.75,14,1,16,0.00
2013-6-9,91.0,78.2,65.5,67.0,62.2,54.9,90,61,31,29.87,29.75,12,1,12,0.00
2013-6-10,97.9,82.3,66.4,72.6,67.3,61.1,89,64,35,29.89,29.80,11,1,11,0.00
2013-6-11,98.1,84.3,68.5,75.2,69.1,65.1,92,63,39,29.92,29.82,12,2,16,0.01
2013-6-12,96.9,85.5,74.9,74.0,71.1,68.4,87,64,43,29.92,29.83,14,2,14,0.00
2013-6-13,96.3,83.6,73.1,76.1,71.7,68.0,92,69,47,29.98,29.87,6,1,7,0.00
2013-6-14,98.8,84.2,70.5,78.0,72.8,68.4,94,71,44,29.95,29.83,11,1,11,0.00
2013-6-15,87.9,78.9,73.4,76.3,73.4,69.0,92,84,63,29.95,29.88,12,1,12,0.04
2013-6-16,95.2,76.2,67.9,80.5,71.4,63.3,97,87,54,29.96,29.84,14,1,14,1.52
2013-6-17,79.7,72.1,66.5,72.1,68.2,65.1,98,88,70,29.97,29.81,16,1,16,0.88
2013-6-18,89.8,76.6,65.0,72.3,67.2,62.7,99,76,43,30.00,29.89,8,1,8,0.00
2013-6-19,87.6,77.0,63.9,71.1,67.6,63.0,98,75,51,30.00,29.89,13,2,15,0.00
2013-6-20,94.7,83.1,72.7,76.9,72.1,67.2,84,70,51,29.98,29.87,16,3,17,0.00
2013-6-21,95.7,85.0,77.1,76.8,71.7,66.3,85,66,39,29.99,29.90,16,3,16,0.00
2013-6-22,93.8,83.7,74.0,73.5,70.0,65.3,90,66,42,29.97,29.83,18,3,18,0.00
2013-6-23,94.3,84.9,76.8,73.0,70.8,67.8,83,64,45,29.90,29.82,18,4,18,0.00
2013-6-24,94.7,83.7,74.9,73.1,70.5,66.5,90,66,42,29.96,29.84,13,3,15,0.00
2013-6-25,92.5,83.9,77.0,73.8,71.9,70.1,83,68,52,29.88,29.75,16,3,16,0.00
2013-6-26,98.8,86.6,75.5,78.6,73.7,69.4,86,67,49,29.85,29.75,10,1,10,0.00
2013-6-27,100.6,87.4,74.4,79.8,74.9,63.9,96,69,46,29.91,29.77,12,1,13,0.00
2013-6-28,97.3,86.0,77.2,72.6,66.9,57.8,76,55,34,29.91,29.77,12,1,12,0.00
2013-6-29,92.2,80.9,65.8,64.7,58.5,53.2,87,50,30,29.88,29.76,15,2,16,0.00
2013-6-30,85.2,76.2,67.4,60.9,56.6,53.4,73,52,39,29.94,29.83,15,2,15,0.00
2013-7-1,84.4,74.0,63.6,63.0,56.0,48.2,78,56,30,30.03,29.94,11,1,12,0.00
2013-7-2,87.3,71.3,55.5,61.6,55.2,50.2,96,61,31,30.08,29.99,8,0,10,0.00
2013-7-3,87.8,71.4,55.7,63.1,55.7,49.1,97,63,29,30.08,29.95,8,1,8,0.00
2013-7-4,92.5,75.5,58.8,68.5,60.9,55.9,94,64,33,30.02,29.89,12,1,13,0.00
2013-7-5,93.5,77.8,62.6,67.4,63.2,57.2,95,64,33,29.98,29.84,9,1,10,0.00
2013-7-6,90.5,80.1,70.0,68.1,65.0,62.8,87,61,43,29.94,29.86,13,2,13,0.00
2013-7-7,95.7,82.2,69.7,71.5,67.1,62.9,86,63,36,29.99,29.90,16,1,16,0.00
2013-7-8,97.0,83.2,69.4,75.5,71.2,66.9,94,70,44,30.03,29.94,11,1,11,0.00
2013-7-9,101.2,87.8,76.2,75.3,71.4,69.6,83,61,38,30.01,29.88,11,1,11,0.00
2013-7-10,102.7,87.4,74.3,74.6,70.6,67.5,84,60,35,29.94,29.83,8,1,8,0.00
2013-7-11,100.0,85.4,74.3,78.2,73.6,70.4,90,70,42,29.94,29.82,9,0,9,0.00
2013-7-12,97.2,84.5,72.7,75.5,72.1,69.1,91,69,45,29.96,29.88,11,2,11,0.00
2013-7-13,97.1,84.8,73.5,71.5,67.1,63.1,83,57,38,29.99,29.85,11,2,11,0.01
2013-7-14,91.8,78.6,71.0,68.8,64.5,59.3,89,64,35,30.01,29.89,10,1,10,0.00
2013-7-15,79.6,72.1,65.4,71.2,66.6,62.4,96,84,68,30.14,30.00,15,1,15,0.55
2013-7-16,91.3,76.8,69.3,74.2,70.8,67.1,98,83,47,30.21,30.12,6,1,16,0.20
2013-7-17,94.2,80.9,70.4,74.1,71.2,67.8,98,76,44,30.25,30.13,9,1,9,0.00
2013-7-18,98.0,83.6,72.1,76.5,72.1,67.8,98,72,40,30.16,29.96,7,0,8,0.00
2013-7-19,96.6,83.9,72.9,77.5,72.3,68.7,94,71,43,29.99,29.84,7,0,7,0.01
2013-7-20,97.7,84.5,72.3,74.7,70.9,67.2,93,66,39,29.91,29.77,12,1,12,0.00
2013-7-21,93.0,79.6,71.9,79.2,73.0,68.5,96,82,59,29.90,29.76,10,1,10,0.68
2013-7-22,96.0,84.6,74.0,79.3,74.4,68.7,94,72,51,29.86,29.74,14,1,15,0.92
2013-7-23,101.3,88.5,73.1,80.1,74.9,66.8,94,66,43,29.90,29.71,32,1,32,0.26
2013-7-24,91.3,77.7,68.5,75.6,70.6,66.4,98,81,53,29.98,29.80,30,1,30,0.72
2013-7-25,87.5,78.7,70.5,76.6,72.8,69.6,98,83,61,30.05,29.95,6,0,6,0.00
2013-7-26,82.8,75.8,68.1,74.4,71.8,67.2,97,88,71,30.00,29.91,11,1,11,0.43
2013-7-27,86.8,74.4,65.3,72.1,66.6,62.4,99,80,47,30.04,29.92,3,0,6,0.01
2013-7-28,88.5,76.1,66.7,73.1,66.6,62.2,91,74,55,29.99,29.90,8,1,8,0.00
2013-7-29,89.5,80.3,69.6,76.3,72.1,66.8,92,77,63,29.97,29.86,13,3,14,0.00
2013-7-30,94.5,79.5,71.3,78.6,74.0,69.8,97,85,56,29.99,29.89,13,1,13,0.78
2013-7-31,92.0,82.2,74.2,78.6,74.6,71.3,98,79,56,30.03,29.94,10,1,10,0.00
2013-8-1,93.8,81.0,71.0,73.2,70.5,63.7,94,73,40,30.05,29.90,7,0,9,0.00
2013-8-2,97.2,84.4,73.3,80.6,75.5,70.8,93,76,55,29.92,29.77,11,2,11,0.00
2013-8-3,85.8,79.8,73.6,75.5,73.5,71.1,95,82,67,30.00,29.82,13,1,14,0.35
2013-8-4,90.0,81.9,76.6,80.6,76.2,71.8,93,83,70,30.04,29.90,10,1,10,0.00
2013-8-5,100.5,86.9,76.2,80.0,75.3,73.2,94,71,44,29.93,29.75,10,1,10,0.00
2013-8-6,101.0,88.9,75.3,77.0,73.3,69.8,89,62,42,29.81,29.71,10,1,10,0.00
2013-8-7,96.3,86.4,76.1,79.6,74.8,71.7,90,69,52,29.83,29.75,9,1,9,0.00
2013-8-8,86.5,79.3,71.8,77.8,73.9,69.8,95,84,73,29.90,29.77,9,1,10,0.25
2013-8-9,86.8,77.6,70.9,77.0,72.7,69.2,98,86,66,30.01,29.84,10,1,10,0.55
2013-8-10,87.5,76.4,68.5,74.8,69.9,65.7,94,81,60,30.08,29.99,10,1,10,0.00
2013-8-11,91.7,80.1,72.3,78.6,73.4,70.0,95,81,56,30.05,29.95,5,0,5,0.00
2013-8-12,87.0,78.0,73.7,78.2,74.3,70.4,97,89,71,30.03,29.90,7,0,9,0.07
2013-8-13,85.0,75.2,70.5,76.3,71.9,68.9,98,90,70,30.02,29.92,11,0,13,1.02
2013-8-14,85.0,74.3,66.0,71.1,66.3,62.8,96,77,53,30.10,30.00,10,1,10,0.00
2013-8-15,83.9,72.2,61.1,68.1,63.4,60.0,97,76,52,30.09,29.96,10,1,10,0.00
2013-8-16,83.6,72.3,63.9,69.3,65.2,63.0,98,80,55,30.08,29.95,7,1,8,0.26
2013-8-17,82.7,71.4,61.2,65.1,62.7,59.7,97,76,49,30.12,30.02,8,0,8,0.00
2013-8-18,88.8,73.7,60.9,69.8,64.6,60.0,98,77,44,30.11,30.00,8,0,8,0.00
2013-8-19,90.3,75.9,64.2,71.5,66.8,63.3,98,77,45,30.08,29.95,11,1,11,0.00
2013-8-20,92.0,77.3,65.3,73.8,67.9,64.4,99,76,44,30.04,29.95,9,1,9,0.00
2013-8-21,95.3,79.2,66.1,73.8,68.4,63.8,98,73,38,30.05,29.97,10,1,10,0.00
2013-8-22,95.0,80.2,68.0,76.3,70.9,67.1,98,76,45,30.06,29.94,9,0,9,0.00
2013-8-23,94.3,79.9,71.0,77.2,72.1,69.2,95,79,48,30.03,29.92,10,0,10,0.24
2013-8-24,94.5,81.2,70.6,77.1,72.5,69.8,98,77,48,30.08,29.97,11,1,11,0.00
2013-8-25,95.9,82.3,71.9,76.5,72.9,70.2,97,76,46,30.15,30.06,10,1,10,0.00
2013-8-26,94.3,82.0,70.4,74.6,72.0,69.3,98,74,47,30.16,30.03,11,1,11,0.00
2013-8-27,93.8,79.8,66.9,73.6,70.1,65.8,98,75,48,30.08,29.97,11,1,11,0.00
2013-8-28,95.8,81.8,70.2,76.0,72.1,69.3,98,76,46,30.03,29.95,9,1,9,0.00
2013-8-29,100.5,84.4,73.3,75.4,72.4,68.1,96,71,37,30.02,29.92,8,0,8,0.00
2013-8-30,101.3,85.0,71.9,75.2,71.8,68.2,98,69,36,29.95,29.81,8,1,8,0.00
2013-8-31,103.5,86.2,75.3,74.5,71.5,68.0,89,65,33,29.85,29.73,8,1,8,0.00
2013-9-1,93.0,82.9,73.8,76.8,72.6,68.5,89,72,55,29.87,29.74,9,0,9,0.00
2013-9-2,89.3,79.3,68.5,73.1,65.6,58.7,88,65,39,29.98,29.86,9,1,9,0.00
2013-9-3,91.5,75.5,62.2,66.8,62.8,57.6,98,69,34,30.03,29.93,7,0,7,0.00
2013-9-4,94.9,77.0,61.6,73.0,65.2,60.2,97,71,37,30.10,29.99,6,0,6,0.00
2013-9-5,95.4,78.5,64.2,68.0,65.0,62.1,96,67,35,30.13,30.01,7,0,8,0.00
2013-9-6,97.0,79.6,65.2,69.6,65.6,61.9,91,66,34,30.09,29.94,7,1,8,0.00
2013-9-7,100.0,81.4,66.8,71.8,66.8,60.8,96,66,30,29.99,29.86,10,1,11,0.00
2013-9-8,99.6,82.8,69.4,73.0,68.2,63.3,92,66,33,29.92,29.82,9,1,10,0.00
2013-9-9,97.1,80.8,66.2,71.2,66.2,61.3,96,66,33,29.94,29.86,13,1,13,0.00
2013-9-10,95.9,79.5,67.9,69.8,66.0,61.2,91,67,35,30.06,29.92,12,1,12,0.00
2013-9-11,97.8,80.1,66.7,70.0,66.5,62.8,97,68,33,30.11,29.98,7,0,9,0.00
2013-9-12,95.2,79.4,69.2,72.4,69.1,65.2,96,73,41,30.06,29.94,9,0,11,0.00
2013-9-13,89.3,77.6,68.4,69.7,61.1,51.6,85,59,35,30.04,29.92,8,1,9,0.00
2013-9-14,86.8,73.7,60.1,61.8,57.8,53.8,84,59,40,30.03,29.91,10,1,11,0.00
2013-9-15,92.0,77.4,64.0,70.4,61.5,53.4,83,59,44,30.00,29.92,10,1,11,0.00
2013-9-16,87.5,76.3,70.2,70.9,68.7,66.2,95,79,52,30.15,29.98,9,0,11,0.30
2013-9-17,85.5,74.3,67.1,71.3,68.3,65.9,97,82,59,30.10,29.92,9,0,12,0.01
2013-9-18,94.5,80.9,69.9,75.2,70.1,67.6,94,72,46,29.96,29.83,15,2,17,0.00
2013-9-19,91.6,78.0,70.2,73.4,70.7,68.2,95,79,53,29.94,29.80,13,1,13,0.15
2013-9-20,72.0,68.5,59.9,69.0,63.1,55.1,98,84,59,29.97,29.89,15,1,17,0.54
2013-9-21,81.7,65.0,53.1,58.2,54.7,51.5,98,74,39,30.02,29.89,8,0,8,0.00
2013-9-22,81.7,64.1,50.5,56.5,52.3,48.5,99,71,33,29.96,29.81,9,1,9,0.00
2013-9-23,82.2,66.6,51.3,59.2,54.9,49.9,98,70,36,29.88,29.74,15,1,15,0.00
2013-9-24,82.2,69.1,59.3,59.5,57.3,54.5,92,69,42,29.88,29.82,14,2,14,0.00
2013-9-25,86.8,68.2,54.5,63.6,58.8,53.7,99,76,38,29.89,29.76,6,0,6,0.00
2013-9-26,93.7,76.4,60.3,64.4,60.8,57.6,93,62,32,29.87,29.77,13,2,14,0.00
2013-9-27,90.3,77.4,62.1,65.5,61.1,56.8,95,61,35,29.93,29.79,20,3,20,0.00
2013-9-28,78.8,68.7,55.7,68.9,62.5,54.8,97,82,61,30.07,29.81,12,2,13,1.06
2013-9-29,77.2,61.4,51.2,60.9,54.5,50.1,99,82,41,30.08,29.92,8,0,8,0.01
2013-9-30,84.3,65.1,49.7,62.6,56.3,49.1,99,78,37,29.93,29.80,9,1,9,0.00
2013-10-1,88.5,73.6,60.6,72.3,65.5,59.5,99,79,45,29.93,29.83,13,1,13,0.00
2013-10-2,87.1,76.7,66.7,73.3,69.4,65.8,98,80,56,29.96,29.82,14,2,14,0.00
2013-10-3,88.3,77.8,69.9,74.3,70.3,67.4,95,79,61,29.87,29.72,17,3,17,0.01
2013-10-4,89.0,79.3,73.4,72.2,69.7,67.1,90,74,52,29.85,29.75,14,3,14,0.00
2013-10-5,77.4,58.4,46.0,68.0,48.8,39.8,95,73,40,30.09,29.83,14,2,17,0.47
2013-10-6,67.9,54.1,43.4,47.9,43.4,37.5,97,71,42,30.06,29.99,16,1,17,0.00
2013-10-7,75.5,56.2,41.4,50.0,43.8,37.7,98,70,28,30.18,30.03,6,0,6,0.00
2013-10-8,76.8,59.6,45.4,55.0,49.4,44.6,98,73,35,30.14,30.00,13,1,13,0.00
2013-10-9,79.6,62.8,47.3,59.7,53.1,46.4,98,73,47,30.09,29.97,11,1,11,0.00
2013-10-10,81.8,66.2,51.5,63.1,56.3,50.2,98,73,47,30.05,29.85,14,2,17,0.00
2013-10-11,83.3,71.5,59.2,68.9,64.1,55.6,93,78,60,29.86,29.76,13,3,14,0.01
2013-10-12,75.2,67.6,59.0,68.8,58.3,52.4,95,73,52,30.12,29.82,11,1,14,0.03
2013-10-13,78.5,68.4,62.8,65.9,58.2,51.7,80,70,64,30.26,30.12,7,1,7,0.00
2013-10-14,66.6,63.1,58.6,64.3,59.0,53.3,97,87,67,30.18,29.89,11,2,12,0.70
2013-10-15,67.7,59.7,53.8,66.6,53.9,45.8,97,82,64,30.09,29.86,14,2,14,0.11
2013-10-16,61.6,53.1,45.4,46.7,43.3,40.4,90,70,51,30.17,30.04,11,1,12,0.00
2013-10-17,69.3,52.3,39.1,49.6,45.1,38.3,98,80,44,30.09,29.96,8,0,8,0.00
2013-10-18,57.1,48.1,41.3,49.7,44.5,38.9,98,88,72,30.17,30.00,14,1,14,0.19
2013-10-19,65.5,46.9,33.1,45.5,38.9,32.1,98,77,36,30.19,30.02,9,1,9,0.00
2013-10-20,71.8,53.6,38.2,47.0,42.1,36.7,98,71,32,30.02,29.84,12,1,12,0.00
2013-10-21,60.9,50.2,38.5,48.9,43.7,37.4,96,80,47,30.12,29.94,12,1,12,0.03
2013-10-22,72.6,53.1,35.6,48.7,42.8,34.8,98,72,39,30.12,29.98,12,1,12,0.00
2013-10-23,68.6,52.5,39.9,49.0,43.7,38.3,97,75,41,30.19,30.00,10,0,10,0.00
2013-10-24,58.6,48.7,40.8,46.1,39.3,33.4,97,72,44,30.42,30.07,15,1,15,0.00
2013-10-25,60.7,47.3,34.9,41.6,35.7,31.9,90,66,38,30.50,30.24,11,1,11,0.00
2013-10-26,69.3,55.4,45.5,56.6,49.1,41.2,97,80,63,30.24,30.08,8,0,8,0.00
2013-10-27,69.5,52.7,38.0,53.3,40.8,31.5,97,69,26,30.12,29.97,6,0,7,0.00
2013-10-28,71.6,61.3,43.6,59.6,55.7,42.0,98,83,61,30.14,30.01,11,2,11,0.00
2013-10-29,75.1,69.1,62.2,68.4,64.9,58.8,91,87,79,30.06,29.90,12,2,15,0.00
2013-10-30,71.3,67.7,63.9,67.9,65.1,62.2,98,91,86,29.97,29.73,15,3,15,1.05
2013-10-31,69.6,61.6,47.6,65.9,56.2,44.9,98,84,53,29.79,29.54,19,2,19,0.44
2013-11-1,71.2,54.9,41.5,49.9,43.5,39.0,98,70,33,30.05,29.78,18,1,18,0.00
2013-11-2,51.9,49.0,44.6,43.0,39.6,37.2,84,70,61,30.19,30.05,10,1,10,0.00
2013-11-3,63.0,49.6,34.3,44.1,39.4,33.5,98,71,44,30.22,29.98,15,2,18,0.00
2013-11-4,65.6,58.0,52.0,55.1,50.9,43.7,90,78,64,30.10,29.95,13,3,14,0.02
2013-11-5,64.5,59.7,55.8,62.6,58.4,54.1,97,95,90,30.09,29.89,13,2,13,0.38
2013-11-6,64.1,45.6,34.0,62.5,40.6,33.2,97,84,59,30.38,29.91,18,2,18,0.45
2013-11-7,65.3,44.6,30.0,44.7,36.8,29.5,98,79,31,30.49,30.34,7,0,7,0.01
2013-11-8,69.3,52.1,34.8,43.4,38.1,32.9,98,65,27,30.34,30.05,13,1,14,0.00
2013-11-9,68.7,56.9,48.5,47.5,44.9,39.2,91,66,37,30.26,30.06,9,1,11,0.00
2013-11-10,71.7,55.2,45.9,50.3,47.3,44.3,96,78,43,30.36,30.25,7,0,7,0.00
2013-11-11,73.6,57.0,44.4,57.4,49.8,38.5,97,79,51,30.44,30.15,17,1,21,0.00
2013-11-12,44.3,34.5,25.3,38.5,22.2,17.4,84,62,40,30.81,30.44,17,2,17,0.00
2013-11-13,53.7,35.9,20.0,28.6,22.9,18.6,96,64,30,30.74,30.34,9,1,10,0.00
2013-11-14,56.7,43.9,31.0,36.1,28.0,23.3,73,56,31,30.35,30.03,11,1,12,0.00
2013-11-15,64.5,53.0,43.9,51.5,45.9,35.7,90,78,58,30.03,29.80,14,2,14,0.09
2013-11-16,76.3,66.1,54.4,65.3,59.9,51.5,94,81,57,29.81,29.53,15,3,15,0.02
2013-11-17,74.6,66.8,44.2,66.0,43.4,19.6,85,49,19,30.09,29.51,20,2,20,0.00
2013-11-18,65.4,49.8,36.6,39.6,32.0,23.6,84,54,21,30.27,30.08,10,0,10,0.00
2013-11-19,59.4,53.8,45.2,35.2,30.7,25.4,67,42,28,30.22,30.00,14,2,14,0.00
2013-11-20,60.9,55.2,47.3,47.7,37.5,29.0,65,52,41,30.02,29.85,11,2,14,0.00
2013-11-21,59.9,50.8,34.9,54.4,46.6,32.3,94,86,58,30.36,29.93,19,2,19,0.15
2013-11-22,34.9,32.4,30.9,32.3,28.7,26.2,92,86,77,30.59,30.35,19,3,19,0.07
2013-11-23,40.7,34.4,27.7,28.8,23.3,13.2,87,65,39,30.72,30.57,13,2,13,0.00
2013-11-24,31.6,27.7,23.4,19.5,16.1,13.3,70,61,55,30.73,30.39,6,1,9,0.00
2013-11-25,36.4,33.7,30.5,32.1,27.3,17.8,91,78,57,30.39,30.24,5,0,5,0.00
2013-11-26,48.6,38.3,29.8,31.7,26.6,14.5,90,64,43,30.43,30.20,22,2,22,0.00
2013-11-27,39.3,28.6,21.5,17.0,13.5,10.3,79,55,32,30.52,30.34,13,1,13,0.00
2013-11-28,60.0,39.2,25.9,32.0,24.8,16.4,86,58,34,30.46,30.32,5,0,8,0.00
2013-11-29,58.6,40.3,22.3,32.9,27.0,20.7,96,64,29,30.53,30.32,11,1,14,0.00
2013-11-30,63.5,48.0,39.1,47.3,39.5,30.5,96,73,54,30.33,30.10,8,0,8,0.00
2013-12-1,56.4,48.1,38.5,52.0,46.1,37.7,98,93,85,30.12,29.89,4,0,4,0.00
2013-12-2,61.3,50.7,41.7,51.4,47.2,40.6,98,88,69,29.89,29.66,3,0,6,0.00
2013-12-3,60.4,50.9,43.2,53.4,48.7,42.4,98,93,76,29.66,29.51,7,1,9,0.00
2013-12-4,47.4,41.8,30.5,46.9,38.1,23.1,98,87,74,30.06,29.49,14,2,14,0.01
2013-12-5,30.9,25.4,21.3,23.6,17.2,13.3,88,71,57,30.35,30.05,16,3,17,0.00
2013-12-6,23.3,19.7,14.3,18.5,14.0,5.5,92,79,62,30.64,30.30,16,2,17,0.00
2013-12-7,22.5,16.7,8.9,15.4,8.1,3.5,79,69,57,30.72,30.35,9,1,10,0.00
2013-12-8,31.6,27.1,22.5,29.0,23.7,14.5,95,87,72,30.35,30.04,7,1,7,0.00
2013-12-9,28.3,23.9,19.8,24.3,18.5,15.0,94,80,65,30.46,30.23,12,2,12,0.00
2013-12-10,37.9,23.9,9.9,23.2,16.9,7.8,94,76,52,30.51,30.29,6,0,7,0.03
2013-12-11,38.7,27.1,17.0,28.1,21.0,15.3,96,79,55,30.66,30.31,13,1,13,0.02
2013-12-12,43.8,29.1,14.5,29.0,22.5,12.6,95,78,52,30.66,30.26,8,0,9,0.04
2013-12-13,41.7,37.8,34.3,37.9,33.3,28.8,94,84,72,30.27,29.84,12,1,14,0.13
2013-12-14,40.6,34.8,22.3,39.5,30.7,20.7,97,86,67,30.31,29.86,12,2,20,0.01
2013-12-15,60.7,37.5,19.5,37.5,27.3,18.0,96,71,34,30.31,30.14,8,0,9,0.00
2013-12-16,69.5,47.8,35.1,36.2,32.4,29.1,83,59,26,30.17,30.05,7,0,7,0.00
2013-12-17,61.3,41.4,28.7,36.0,31.4,27.2,96,72,33,30.33,30.14,8,0,8,0.00
2013-12-18,69.9,47.9,27.5,43.8,35.1,26.2,97,66,32,30.28,29.91,13,1,14,0.00
2013-12-19,63.9,58.5,52.6,57.2,51.5,43.5,89,78,65,29.91,29.65,15,2,17,0.00
2013-12-20,62.2,39.0,29.3,58.5,34.5,24.4,94,84,74,29.98,29.65,21,2,21,0.06
2013-12-21,32.4,30.9,29.6,31.1,29.4,27.6,95,94,92,29.88,29.72,6,0,6,0.00
2013-12-22,32.0,29.6,27.5,30.7,27.1,24.4,95,90,85,30.43,29.80,0,0,0,0.00
2013-12-23,29.6,25.6,19.4,25.5,22.5,17.5,92,88,83,30.66,30.43,0,0,0,0.00
2013-12-24,42.2,28.2,15.6,35.1,24.5,13.7,94,86,73,30.65,30.24,2,0,10,0.00
2013-12-25,41.3,31.1,25.0,35.9,28.9,24.0,97,92,81,30.45,30.31,3,0,11,0.00
2013-12-26,52.4,33.4,21.3,38.5,27.9,20.1,97,83,48,30.45,30.32,2,0,8,0.00
2013-12-27,62.5,39.0,25.0,35.8,29.2,23.5,96,73,32,30.45,30.32,1,0,6,0.00
2013-12-28,59.9,42.1,26.5,40.8,33.2,24.8,95,74,41,30.32,29.94,9,0,10,0.00
2013-12-29,42.7,31.1,22.6,37.9,22.7,7.6,93,71,51,30.35,29.95,22,2,22,0.00
2013-12-30,39.0,24.8,14.6,19.3,13.4,5.3,86,62,43,30.42,30.29,7,0,7,0.00
2013-12-31,57.4,36.2,18.2,29.1,22.1,16.0,94,62,24,30.42,30.18,11,1,11,0.00
2014-1-1,56.7,39.3,19.4,36.4,28.2,14.6,83,65,45,30.30,29.89,19,2,19,0.00
2014-1-2,32.6,22.2,13.8,16.5,12.5,7.1,85,67,49,30.53,30.30,16,2,16,0.00